This is the latest recevied weather packets stored in our database for station/object N2OCK. If no packets are shown the sender has not sent any weather packets the latest 1 day(s).
| Time | Temp. | Humidity | Pressure | Rain* | Wind** | Luminosity | Snow |
|---|---|---|---|---|---|---|---|
| 1778018786 | 18.89° C | 66% | 1009.4 hPa | 0 mm | 4.02 m/s, 227° | 162 W/m² | - |
| 1778018484 | 18.89° C | 66% | 1009.4 hPa | 0 mm | 2.68 m/s, 210° | 183 W/m² | - |
| 1778018181 | 18.89° C | 65% | 1009.6 hPa | 0 mm | 4.02 m/s, 205° | 200 W/m² | - |
| 1778017879 | 19.44° C | 65% | 1009.7 hPa | 0 mm | 1.79 m/s, 215° | 202 W/m² | - |
| 1778017577 | 19.44° C | 64% | 1009.5 hPa | 0 mm | 3.13 m/s, 247° | 212 W/m² | - |
| 1778017274 | 19.44° C | 65% | 1009.6 hPa | 0 mm | 0.89 m/s, 248° | 234 W/m² | - |
| 1778016971 | 19.44° C | 65% | 1009.3 hPa | 0 mm | 3.13 m/s, 193° | 252 W/m² | - |
| 1778016668 | 19.44° C | 64% | 1009.5 hPa | 0 mm | 3.58 m/s, 160° | 265 W/m² | - |
| 1778016364 | 19.44° C | 65% | 1009.3 hPa | 0 mm | 2.68 m/s, 252° | 248 W/m² | - |
| 1778016066 | 19.44° C | 65% | 1009.3 hPa | 0 mm | 1.79 m/s, 158° | 297 W/m² | - |
| 1778015758 | 19.44° C | 65% | 1009.2 hPa | 0 mm | 2.24 m/s, 218° | 291 W/m² | - |
| 1778015456 | 19.44° C | 65% | 1009.2 hPa | 0 mm | 2.24 m/s, 195° | 307 W/m² | - |
| 1778015152 | 19.44° C | 65% | 1009.3 hPa | 0 mm | 2.68 m/s, 204° | 296 W/m² | - |
| 1778014849 | 20° C | 65% | 1009.2 hPa | 0 mm | 1.34 m/s, 159° | 276 W/m² | - |
| 1778014547 | 20° C | 64% | 1009 hPa | 0 mm | 1.79 m/s, 193° | 316 W/m² | - |
| 1778014244 | 20° C | 65% | 1009.2 hPa | 0 mm | 1.34 m/s, 197° | 361 W/m² | - |
| 1778013942 | 20° C | 65% | 1009.3 hPa | 0 mm | 0.89 m/s, 219° | 383 W/m² | - |
| 1778013639 | 20° C | 65% | 1009.2 hPa | 0 mm | 2.24 m/s, 222° | 372 W/m² | - |
| 1778013335 | 20° C | 65% | 1009.1 hPa | 0 mm | 3.13 m/s, 197° | 354 W/m² | - |
| 1778013032 | 20° C | 64% | 1009.3 hPa | 0 mm | 2.68 m/s, 231° | 408 W/m² | - |
| 1778012728 | 20° C | 65% | 1009.3 hPa | 0 mm | 1.34 m/s, 207° | 439 W/m² | - |
| 1778012424 | 20° C | 64% | 1009.5 hPa | 0 mm | 1.79 m/s, 215° | 421 W/m² | - |
| 1778012122 | 20.56° C | 64% | 1009.4 hPa | 0 mm | 1.34 m/s, 151° | 462 W/m² | - |
| 1778011819 | 20.56° C | 65% | 1009.4 hPa | 0 mm | 0.45 m/s, 244° | 470 W/m² | - |
| 1778011517 | 20.56° C | 64% | 1009.4 hPa | 0 mm | 0.45 m/s, 212° | 485 W/m² | - |
* Rain latest hour (hover to see other rain measurements)
** Current wind speed in m/s (hover to see current wind gust speed)